This demonstration page uses our WeatherBlox Daily Observations layout. Learn more.

Left ArrowRight Arrow

Hourly Observations for July 25, 2020

Temp ( °F °C ) Dew Point ( °F °C ) Humidity (%) Winds ( mph kmh ) Pressure ( in mb ) Visibility ( mi km ) Precip ( " mm )
12:54 am 00:54 Clear 80 26.7 72 22.2 76 76 S 12 19 29.96 1015 10 16.0934 0 0
1:54 am 01:54 Clear 79 26.1 72 22.2 79 79 S 9 15 29.95 1014 10 16.0934 0 0
2:54 am 02:54 Clear 78 25.6 71 21.7 79 79 S 12 19 29.94 1014 10 16.0934 0 0
3:54 am 03:54 Clear 78 25.6 71 21.7 79 79 S 9 15 29.95 1014 10 16.0934 0 0
4:54 am 04:54 Clear 77 25 71 21.7 82 82 S 9 15 29.93 1014 10 16.0934 0 0
5:54 am 05:54 Mostly Cloudy 76 24.4 71 21.7 85 85 S 7 11 29.95 1014 10 16.0934 0 0
6:54 am 06:54 Mostly Cloudy 76 24.4 71 21.7 85 85 S 8 13 29.95 1014 9 14.48406 0 0
7:54 am 07:54 Sunny 77 25 71 21.7 82 82 S 10 17 29.94 1014 9 14.48406 0 0
8:54 am 08:54 Sunny 81 27.2 71 21.7 72 72 S 15 24 29.93 1014 9 14.48406 0 0
9:54 am 09:54 Sunny 84 28.9 72 22.2 67 67 SSW 14 22 29.94 1014 9 14.48406 0 0
10:54 am 10:54 Sunny 87 30.6 71 21.7 59 59 SSW 16 26 29.93 1014 10 16.0934 0 0
11:54 am 11:54 Sunny 88 31.1 71 21.7 57 57 S 17 28 29.93 1014 9 14.48406 0 0
12:54 pm 12:54 Sunny 89 31.7 72 22.2 57 57 SSW 20 31 29.92 1013 9 14.48406 0 0
1:54 pm 13:54 Sunny 90 32.2 74 23.3 59 59 S 17 28 29.91 1013 9 14.48406 0 0
2:54 pm 14:54 Mostly Sunny 90 32.2 75 23.9 62 62 S 18 30 29.91 1013 9 14.48406 0 0
3:54 pm 15:54 Sunny 91 32.8 73 22.8 56 56 SSW 22 35 29.9 1012 9 14.48406 0 0
4:54 pm 16:54 Mostly Sunny 91 32.8 74 23.3 57 57 S 21 33 29.89 1012 9 14.48406 0 0
5:54 pm 17:54 Sunny 91 32.8 72 22.2 54 54 S 21 33 29.88 1012 9 14.48406 0 0
6:54 pm 18:54 Sunny 90 32.2 73 22.8 58 58 S 17 28 29.87 1012 9 14.48406 0 0
7:54 pm 19:54 Sunny 87 30.6 73 22.8 63 63 S 13 20 29.88 1012 9 14.48406 0 0
8:54 pm 20:54 Clear 85 29.4 73 22.8 68 68 S 14 22 29.88 1012 10 16.0934 0 0
9:54 pm 21:54 Clear 83 28.3 72 22.2 70 70 S 13 20 29.88 1012 10 16.0934 0 0
10:54 pm 22:54 Clear 81 27.2 73 22.8 77 77 S 8 13 29.91 1013 10 16.0934 0 0
11:54 pm 23:54 Clear 79 26.1 72 22.2 79 79 S 8 13 29.93 1014 10 16.0934 0 0

Powered by AerisWeather